Showing default

RELAY 1 (A-15), 503

Orbit data source: Space-Track

RELAY 1 (A-15), 503 is a payload satellite owned by GSFC (US) that was launched on Thu, 13 Dec 1962 UTC via a THOR DELTA B launch vehicle from the Air Force Eastern Test Range (AFETR). Payload-class satellites include a variety of spacecraft equipped with specific instruments for various scientific and technological missions. These include communications satellites like Starlink; space stations such as the ISS; scientific satellites like the Hubble; Earth observation satellites from companies like Planet Labs, Umbra, and HawkEye 360; GPS; miniature CubeSats for education and research; and military/defense satellites.

Loading next visibility...
Identifier
503, 1962-068A
Orbit
Active
Country
Flag of USUS
Related business
Manufacturer
RCA/East Windsor
Mission
Spacecraft
Bus & Motor
RELAY, Unknown motor
Mass
78 kg wet, 78 kg dry
Launch date (UTC)
1962-12-13 (63 years ago)
Launch vehicle
THOR DELTA B
Launch site
Air Force Eastern Test Range (AFETR)
Object type
Payload
Rocket body
Debris
Shape & HBR
Unknown
Radar Cross Section
Medium (>0.1 m² and <1 m²)

Expand to show TLE details & history
Last TLE update: 2 days ago

TLE from 2 days ago
0 RELAY 1 (A-15)
1 00503U 62068A   25351.93633311 -.00000024  00000-0  00000-0 0  9992
2 00503  47.5122 297.1445 2839575 358.7426  25.4692  7.78168240791375
Epoch: 2025-12-17T22:28Z
TLE epoch observation values (Epoch: 2025-12-17T22:28:19.180Z)
Latitude
31.03635°
Longitude
-93.47202°
Altitude
1,870.404 km
Speed
7.724 km/s
True Right ascension
22h 01m 37s
True Declination
30° 54' 18"
Sunlit
Object was in daylight at epoch
Visualization orbit readout
Latitude
Unknown
Longitude
Unknown
Altitude
Unknown
Speed
Unknown
Apparent Right ascension
Unknown
Apparent Declination
Unknown
Sunlit
N/A
Visualization observer readout
Local Sidereal Time
15:30:10
Azimuth
Unknown
Elevation
Unknown
Doppler factor
Unknown
Orbital elements
Apogee altitude
7,434.343 km
Perigee altitude
1,324.861 km
Semi-major axis
10,757.739 km
Eccentricity
0.28396
Inclination
47.5122°
RAAN
297.1445°
Arg. of periapsis
358.7426°
True anomaly
45.45563°
Mean anomaly
25.4692°
Eccentric anomaly
34.74061°
Mean motion
1.94519 °/min
Orbital period
185.07 mins
BSTAR
0
Loading maneuver chart data...
Computing Atmospheric mass density...
Loading historical data...
Loading historical data...
Loading historical data...
Loading historical data...
Loading historical data...
Loading historical data...
Loading historical data...
Other satellites on launch #68 in the year 1962 (1962-12-13 UTC)

Documentation

Showing up to 5 results
|